Météo par heure à Alicun

Ce jour, 13 Mai, Jeudi

Heure Température Précipitation Vent Pression Humidité
00:00 +14°C° 0 mm 2 m/s 698 mmHg 62%
01:00 +13°C° 0 mm 2 m/s 698 mmHg 64%
02:00 +13°C° 0 mm 2 m/s 698 mmHg 65%
03:00 +12°C° 0 mm 2 m/s 697 mmHg 67%
04:00 +12°C° 0 mm 1 m/s 698 mmHg 67%
05:00 +12°C° 0 mm 1 m/s 698 mmHg 67%
06:00 +13°C° 0 mm 1 m/s 698 mmHg 67%
07:00 +14°C° 0 mm 1 m/s 698 mmHg 61%
08:00 +16°C° 0 mm 2 m/s 698 mmHg 54%
09:00 +17°C° 0 mm 2 m/s 698 mmHg 48%
10:00 +19°C° 0 mm 3 m/s 698 mmHg 43%
11:00 +20°C° 0 mm 3 m/s 698 mmHg 39%
12:00 +22°C° 0 mm 3 m/s 698 mmHg 35%
13:00 +22°C° 0 mm 4 m/s 697 mmHg 34%
14:00 +22°C° 0 mm 5 m/s 697 mmHg 33%
15:00 +23°C° 0 mm 5 m/s 697 mmHg 33%
16:00 +22°C° 0 mm 5 m/s 697 mmHg 35%
17:00 +22°C° 0 mm 5 m/s 697 mmHg 38%
18:00 +21°C° 0 mm 5 m/s 697 mmHg 41%
19:00 +20°C° 0 mm 4 m/s 697 mmHg 46%
20:00 +19°C° 0 mm 3 m/s 697 mmHg 50%
21:00 +18°C° 0 mm 2 m/s 697 mmHg 55%
22:00 +17°C° 0 mm 2 m/s 697 mmHg 60%
23:00 +16°C° 0 mm 2 m/s 696 mmHg 64%

Demain, 14 Mai, Vendredi

Heure Température Précipitation Vent Pression Humidité
00:00 +15°C° 0 mm 2 m/s 696 mmHg 69%
01:00 +15°C° 0 mm 2 m/s 696 mmHg 73%
02:00 +14°C° 0 mm 2 m/s 696 mmHg 77%
03:00 +13°C° 0 mm 2 m/s 695 mmHg 80%
04:00 +13°C° 0 mm 1 m/s 696 mmHg 81%
05:00 +13°C° 0 mm 1 m/s 696 mmHg 82%
06:00 +13°C° 0 mm 1 m/s 696 mmHg 83%
07:00 +15°C° 0 mm 1 m/s 696 mmHg 75%
08:00 +16°C° 0 mm 2 m/s 697 mmHg 67%
09:00 +18°C° 0 mm 2 m/s 697 mmHg 58%
10:00 +19°C° 0 mm 2 m/s 697 mmHg 50%
11:00 +21°C° 0 mm 3 m/s 698 mmHg 42%
12:00 +22°C° 0 mm 3 m/s 698 mmHg 34%
13:00 +24°C° 0 mm 3 m/s 697 mmHg 31%
14:00 +25°C° 0 mm 4 m/s 697 mmHg 28%
15:00 +26°C° 0 mm 4 m/s 697 mmHg 25%
16:00 +25°C° 0 mm 4 m/s 697 mmHg 27%
17:00 +23°C° 0 mm 4 m/s 697 mmHg 29%
18:00 +22°C° 0 mm 4 m/s 697 mmHg 30%
19:00 +21°C° 0 mm 3 m/s 698 mmHg 33%
20:00 +20°C° 0 mm 2 m/s 698 mmHg 36%
21:00 +19°C° 0 mm 1 m/s 698 mmHg 39%
22:00 +19°C° 0 mm 1 m/s 698 mmHg 40%
23:00 +18°C° 0 mm 1 m/s 698 mmHg 41%

Après-demain, 15 Mai, Samedi

Heure Température Précipitation Vent Pression Humidité
00:00 +18°C° 0 mm 1 m/s 697 mmHg 41%
01:00 +16°C° 0 mm 1 m/s 697 mmHg 42%
02:00 +16°C° 0 mm 1 m/s 697 mmHg 43%
03:00 +15°C° 0 mm 1 m/s 697 mmHg 44%
04:00 +16°C° 0 mm 1 m/s 697 mmHg 44%
05:00 +16°C° 0 mm 1 m/s 697 mmHg 45%
06:00 +16°C° 0 mm 0 m/s 697 mmHg 45%
07:00 +20°C° 0 mm 1 m/s 698 mmHg 39%
08:00 +22°C° 0 mm 1 m/s 698 mmHg 33%
09:00 +24°C° 0 mm 1 m/s 698 mmHg 26%
10:00 +25°C° 0 mm 2 m/s 698 mmHg 24%
11:00 +27°C° 0 mm 2 m/s 698 mmHg 22%
12:00 +28°C° 0 mm 3 m/s 698 mmHg 20%
13:00 +29°C° 0 mm 3 m/s 698 mmHg 20%
14:00 +29°C° 0 mm 4 m/s 698 mmHg 19%
15:00 +30°C° 0 mm 4 m/s 698 mmHg 19%
16:00 +29°C° 0 mm 4 m/s 698 mmHg 21%
17:00 +28°C° 0 mm 4 m/s 697 mmHg 22%
18:00 +28°C° 0 mm 3 m/s 697 mmHg 24%
19:00 +26°C° 0 mm 3 m/s 697 mmHg 27%
20:00 +24°C° 0 mm 2 m/s 697 mmHg 31%
21:00 +22°C° 0 mm 1 m/s 697 mmHg 34%
22:00 +22°C° 0 mm 1 m/s 697 mmHg 35%
23:00 +21°C° 0 mm 1 m/s 697 mmHg 36%

16 Mai, Dimanche

Heure Température Précipitation Vent Pression Humidité
00:00 +20°C° 0 mm 1 m/s 697 mmHg 37%
01:00 +20°C° 0 mm 1 m/s 697 mmHg 40%
02:00 +19°C° 0 mm 1 m/s 696 mmHg 43%
03:00 +19°C° 0 mm 1 m/s 696 mmHg 45%
04:00 +19°C° 0 mm 1 m/s 696 mmHg 47%
05:00 +19°C° 0 mm 1 m/s 696 mmHg 48%
06:00 +20°C° 0 mm 1 m/s 697 mmHg 49%
07:00 +22°C° 0 mm 1 m/s 697 mmHg 45%
08:00 +24°C° 0 mm 1 m/s 697 mmHg 41%
09:00 +26°C° 0 mm 2 m/s 698 mmHg 36%
10:00 +27°C° 0 mm 2 m/s 698 mmHg 32%
11:00 +28°C° 0 mm 3 m/s 698 mmHg 28%
12:00 +30°C° 0 mm 3 m/s 698 mmHg 25%
13:00 +30°C° 0 mm 4 m/s 697 mmHg 23%
14:00 +32°C° 0 mm 5 m/s 697 mmHg 21%
15:00 +32°C° 0 mm 6 m/s 697 mmHg 20%
16:00 +30°C° 0 mm 5 m/s 697 mmHg 23%
17:00 +29°C° 0 mm 5 m/s 697 mmHg 26%
18:00 +28°C° 0 mm 4 m/s 697 mmHg 29%
19:00 +27°C° 0 mm 4 m/s 697 mmHg 34%
20:00 +25°C° 0 mm 3 m/s 697 mmHg 39%
21:00 +23°C° 0 mm 2 m/s 697 mmHg 43%
22:00 +21°C° 0 mm 2 m/s 697 mmHg 48%
23:00 +21°C° 0 mm 2 m/s 697 mmHg 52%

17 Mai, Lundi

Heure Température Précipitation Vent Pression Humidité
00:00 +21°C° 0 mm 1 m/s 697 mmHg 56%
01:00 +20°C° 0 mm 1 m/s 697 mmHg 59%
02:00 +19°C° 0 mm 1 m/s 696 mmHg 63%
03:00 +19°C° 0 mm 1 m/s 696 mmHg 66%
04:00 +19°C° 0 mm 1 m/s 696 mmHg 67%
05:00 +19°C° 0 mm 1 m/s 697 mmHg 68%
06:00 +19°C° 0 mm 1 m/s 697 mmHg 68%
07:00 +20°C° 0 mm 2 m/s 697 mmHg 63%
08:00 +21°C° 0 mm 2 m/s 698 mmHg 57%
09:00 +24°C° 0 mm 2 m/s 698 mmHg 51%
10:00 +25°C° 0 mm 3 m/s 698 mmHg 46%
11:00 +26°C° 0 mm 3 m/s 698 mmHg 41%
12:00 +28°C° 0 mm 4 m/s 699 mmHg 36%
13:00 +28°C° 0 mm 4 m/s 699 mmHg 34%
14:00 +28°C° 0 mm 5 m/s 698 mmHg 32%
15:00 +29°C° 0 mm 5 m/s 698 mmHg 29%
16:00 +28°C° 0 mm 5 m/s 698 mmHg 27%
17:00 +27°C° 0 mm 5 m/s 699 mmHg 26%
18:00 +27°C° 0 mm 4 m/s 699 mmHg 24%
19:00 +25°C° 0 mm 3 m/s 699 mmHg 26%
20:00 +22°C° 0 mm 3 m/s 699 mmHg 29%
21:00 +20°C° 0 mm 2 m/s 700 mmHg 31%
22:00 +20°C° 0 mm 1 m/s 700 mmHg 34%
23:00 +19°C° 0 mm 1 m/s 700 mmHg 37%

18 Mai, Mardi

Heure Température Précipitation Vent Pression Humidité
00:00 +19°C° 0 mm 1 m/s 699 mmHg 40%
01:00 +18°C° 0 mm 1 m/s 699 mmHg 44%
02:00 +16°C° 0 mm 1 m/s 699 mmHg 49%
03:00 +16°C° 0 mm 1 m/s 699 mmHg 53%
04:00 +16°C° 0 mm 1 m/s 700 mmHg 58%
05:00 +16°C° 0 mm 1 m/s 700 mmHg 63%
06:00 +16°C° 0 mm 1 m/s 701 mmHg 68%
07:00 +19°C° 0 mm 1 m/s 701 mmHg 61%
08:00 +20°C° 0 mm 2 m/s 701 mmHg 54%
09:00 +23°C° 0 mm 2 m/s 702 mmHg 46%
10:00 +24°C° 0 mm 2 m/s 702 mmHg 41%
11:00 +25°C° 0 mm 2 m/s 702 mmHg 35%
12:00 +27°C° 0 mm 2 m/s 702 mmHg 30%
13:00 +28°C° 0 mm 2 m/s 702 mmHg 29%
14:00 +28°C° 0 mm 2 m/s 701 mmHg 27%
15:00 +29°C° 0 mm 2 m/s 701 mmHg 26%
16:00 +28°C° 0 mm 2 m/s 701 mmHg 27%
17:00 +28°C° 0 mm 2 m/s 701 mmHg 28%
18:00 +28°C° 0 mm 2 m/s 701 mmHg 29%
19:00 +26°C° 0 mm 2 m/s 701 mmHg 33%
20:00 +24°C° 0 mm 1 m/s 701 mmHg 37%
21:00 +22°C° 0 mm 1 m/s 701 mmHg 42%
22:00 +21°C° 0 mm 1 m/s 701 mmHg 45%
23:00 +21°C° 0 mm 1 m/s 701 mmHg 48%
Voir plus

Nous avons besoin de votre consentement

Meteoprog et ses fournisseurs de services peuvent stocker et accéder à des données personnelles telles que des cookies, des identifiants d'appareils ou d'autres technologies similaires sur votre appareil et traiter ces données pour personnaliser le contenu et les publicités, ainsi que pour fournir des fonctionnalités de médias sociaux et analyser le trafic.

  • Stocker et/ou accéder à des informations sur votre appareil

    Des cookies, des identifiants d'appareils ou d'autres informations peuvent être stockés ou accessibles sur votre appareil aux fins indiquées ci-dessus.

  • Annonces et contenus personnalisés, mesure des annonces et des contenus, connaissance de l'audience et développement de produits

    Les annonces et le contenu peuvent être personnalisés en fonction d'un profil. D'autres données peuvent être ajoutées pour mieux personnaliser les annonces et le contenu. Les performances des publicités et du contenu peuvent être mesurées. Il est possible d'obtenir des informations sur le public qui a vu les publicités et le contenu. Ces données peuvent être utilisées pour développer ou améliorer l'expérience de l'utilisateur, les systèmes et les logiciels.

En cliquant sur "J'accepte", vous autorisez l'utilisation de cookies, des identifiants d'appareils, des balises web ou d'autres technologies similaires. Vos paramètres peuvent être modifiés dans le navigateur de votre appareil.

Dans certains cas, des intérêts légitimes peuvent être invoqués plutôt qu'un consentement. Vous pouvez en savoir plus à ce sujet dans notre Politique de confidentialité et de cookies.